Wind_Speed
17 17 14 11 8 7 7 8 7 7 7 8 7 8 13 13 12 9 8 9 7 8 9 8 10 11 10 10 10 9 9 11 11 12 11 11 12 12 12 12 13 13 13 14 15 15 16 17 17 18 17 17 17 19 21 21 21 19 15 11 10 9 7 7 7 6 4 4 3 2 3 5 7 7 9 12 13 16 20 22 24 24 24 24 22
16 14 12 10 7 6 6 7 5 4 6 7 7 8 11 12 9 8 7 8 5 8 10 9 9 9 9 10 11 9 9 9 10 12 11 10 11 11 12 12 11 11 11 12 13 14 14 15 16 17 18 18 17 18 19 21 22 21 17 13 11 10 8 7 7 6 4 4 3 3 3 4 6 7 8 9 10 12 16 19 23 25 26 25 23
15 12 11 10 8 8 8 8 6 5 5 6 8 8 9 10 9 7 8 8 5 6 8 8 8 8 8 10 10 8 8 8 9 11 10 10 10 11 12 12 11 10 10 11 11 12 13 14 15 16 17 18 18 17 18 20 21 21 19 15 12 10 8 7 7 6 5 4 3 3 4 4 6 7 7 9 9 10 13 16 21 24 25 24 24
13 11 10 10 9 9 9 7 5 5 5 5 7 7 8 10 9 8 9 8 6 5 3 5 6 5 6 8 7 7 6 7 8 10 11 11 10 9 10 11 11 10 10 10 10 11 12 13 14 15 17 17 18 17 16 18 20 21 20 18 13 10 8 6 6 6 5 4 3 3 4 4 5 6 7 9 9 10 12 16 20 22 23 23 25
11 9 11 11 8 8 8 7 6 5 6 6 8 8 9 10 9 10 10 7 6 4 1 3 6 4 5 6 5 4 4 5 6 9 11 12 11 9 10 11 12 11 10 11 10 10 10 12 13 14 16 17 17 18 17 17 18 20 20 19 14 11 8 7 6 6 6 6 5 5 6 6 6 6 7 9 9 10 12 15 19 20 21 22 23
11 11 12 11 8 7 6 5 6 6 6 7 10 9 7 9 10 10 8 6 5 4 3 6 6 4 5 3 3 4 1 4 5 8 10 11 10 8 8 11 12 11 10 11 11 11 9 10 12 13 14 15 16 18 18 18 17 18 19 19 15 11 9 7 7 7 8 8 7 8 8 8 8 7 8 9 9 10 12 15 18 19 20 20 20
12 12 12 9 8 9 7 6 6 6 7 7 8 9 7 6 7 6 7 6 5 5 6 6 4 4 4 3 2 1 2 3 4 6 8 8 8 7 8 10 12 12 11 11 12 11 10 10 11 12 12 13 15 17 17 18 18 17 17 18 17 13 10 9 8 9 10 9 8 9 8 8 8 8 8 9 10 11 12 15 18 18 18 19 18
15 14 11 9 10 10 8 7 7 8 8 7 5 7 6 5 4 3 4 5 5 5 7 6 4 4 3 2 2 3 4 3 3 4 7 7 6 8 9 10 11 11 10 11 12 12 11 12 11 10 11 12 13 15 16 17 18 18 17 17 18 16 12 10 10 10 10 10 9 9 8 8 7 7 8 9 11 12 13 15 17 17 18 18 17
16 15 12 11 9 7 7 8 8 8 8 7 5 5 4 2 1 3 4 5 5 5 7 6 4 5 4 3 2 3 5 6 5 5 8 7 6 8 9 9 9 10 10 10 11 12 12 12 10 9 10 11 12 14 15 16 17 18 17 16 17 18 14 11 11 10 10 10 9 8 8 7 7 7 8 10 11 12 13 15 16 17 17 17 16
15 15 13 11 9 7 8 10 10 9 10 8 6 3 2 1 1 3 4 6 5 4 6 5 4 7 6 6 2 4 5 4 5 5 7 6 6 8 9 8 7 8 8 9 10 11 12 12 9 8 9 10 10 12 14 15 17 18 18 17 16 17 16 12 10 10 10 10 8 8 8 7 7 8 9 10 12 12 13 14 16 16 16 15 15
14 13 12 11 10 9 9 10 10 10 12 9 6 4 5 4 2 3 4 5 4 5 5 3 5 7 6 6 4 2 5 4 3 4 6 7 8 9 9 7 8 7 6 7 8 9 11 11 9 8 9 10 9 10 12 14 16 17 17 17 16 16 16 13 10 9 9 9 8 7 7 7 7 8 9 10 12 13 14 15 16 17 16 16 15
13 12 11 10 9 9 8 9 10 12 13 10 7 7 7 7 4 5 6 5 5 6 4 3 4 4 5 6 4 2 5 7 5 5 6 8 9 11 10 9 9 8 6 6 6 8 10 10 10 9 9 10 8 8 10 12 14 17 17 17 16 14 15 15 11 8 8 9 8 6 6 7 8 8 8 10 11 13 14 14 15 15 15 14 14
13 12 11 9 8 9 8 9 10 11 12 11 10 9 9 9 6 4 6 6 4 3 3 3 3 3 3 4 3 2 4 7 7 9 9 9 10 12 12 9 9 8 7 6 5 8 10 10 10 10 9 9 8 6 7 10 13 17 17 15 16 15 14 15 13 9 7 7 8 6 5 6 7 8 8 9 10 11 12 13 13 13 12 13 13
14 13 12 10 9 9 10 10 10 11 12 11 11 9 8 10 7 3 2 3 2 2 4 4 4 4 3 4 4 5 7 8 8 10 11 10 9 10 9 8 7 6 6 5 5 8 9 9 9 8 8 7 7 6 5 8 12 15 16 15 14 15 13 13 14 11 7 6 6 6 5 5 7 8 8 8 9 9 10 10 11 11 11 12 13
14 13 12 11 10 9 10 10 9 10 11 9 8 8 8 10 7 4 4 3 2 4 4 3 2 3 5 6 6 6 8 9 8 9 10 7 5 6 6 6 6 6 6 6 6 8 8 8 8 6 7 6 6 6 5 7 10 12 15 14 13 14 13 12 13 13 10 6 5 5 5 5 6 7 7 8 9 9 9 8 9 10 11 12 14
14 13 13 12 10 10 10 10 9 9 10 8 7 8 10 10 6 5 6 6 5 5 3 2 2 3 5 5 5 7 9 8 7 8 9 7 6 7 6 4 6 8 8 8 8 9 7 6 6 5 5 6 6 6 5 5 8 11 12 13 12 11 12 12 11 12 12 9 6 5 5 5 5 6 7 7 8 9 9 9 8 9 10 13 15
14 13 13 12 11 10 10 9 9 9 9 8 8 9 11 10 7 6 7 7 7 7 5 3 3 4 5 5 5 7 7 6 7 8 8 8 8 9 8 5 6 8 9 8 8 9 7 5 5 4 4 5 5 6 6 6 7 9 10 10 11 10 10 11 10 11 12 11 9 6 5 5 5 5 6 7 7 8 9 10 10 10 11 13 14
14 13 12 11 11 11 10 8 8 9 9 9 8 8 9 9 8 7 8 8 7 7 9 7 3 4 5 4 4 5 4 4 5 7 7 7 6 8 9 6 7 9 8 6 6 7 6 4 4 3 3 4 5 5 6 6 7 9 8 9 11 9 8 8 9 10 11 11 10 8 6 4 4 5 6 7 7 7 7 8 10 12 13 14 13
14 13 12 11 11 11 10 9 9 9 9 9 8 7 8 8 8 8 8 8 7 7 9 9 5 4 3 2 3 4 4 5 5 7 9 8 6 6 8 7 9 10 7 5 6 6 6 5 3 3 4 4 4 3 4 5 7 8 7 8 11 10 7 6 7 8 10 11 10 9 8 6 5 5 5 6 7 7 7 7 7 10 12 14 14
14 13 11 10 11 11 11 10 10 10 10 10 8 8 8 8 7 8 7 7 6 7 8 7 5 1 1 3 4 4 5 6 6 8 10 11 9 7 8 8 9 9 6 5 6 6 7 6 4 4 5 4 2 2 3 5 5 5 5 7 10 10 6 4 5 6 8 9 10 9 9 8 7 5 5 5 6 7 7 7 7 8 9 12 13
13 12 11 10 11 11 11 11 10 10 9 9 9 8 8 8 8 7 6 7 6 7 8 8 5 1 1 4 5 6 7 7 8 8 9 10 9 6 7 9 9 9 9 8 8 7 7 7 4 4 4 4 2 1 2 3 2 1 3 6 8 8 7 4 3 4 6 7 9 9 9 9 8 7 6 5 5 5 6 7 7 7 8 9 10
12 12 11 11 11 11 11 11 10 10 9 9 9 9 7 7 8 7 7 8 7 7 8 7 5 3 2 4 6 7 8 9 9 8 9 10 9 7 9 11 10 10 11 11 9 7 8 8 5 3 3 3 2 1 0 1 1 1 0 5 6 6 6 5 4 3 3 4 6 7 8 8 8 8 7 6 6 5 5 5 6 7 8 8 8
13 12 11 11 11 11 11 11 10 10 8 9 9 9 7 6 5 7 8 9 8 8 8 7 7 6 3 4 6 7 8 10 9 8 9 9 9 9 9 9 10 12 12 12 9 8 8 7 4 3 3 3 2 1 0 2 2 2 1 3 5 6 6 6 6 4 2 2 3 4 5 6 7 8 8 7 7 6 5 5 5 6 7 8 8
13 13 11 11 11 11 11 11 10 10 9 9 8 8 9 8 6 7 8 7 7 8 8 8 7 7 5 4 7 7 7 8 8 8 9 8 8 9 9 9 11 13 13 12 10 8 5 3 2 1 2 2 2 2 2 3 3 3 2 1 3 5 6 7 7 7 5 3 2 1 2 3 4 5 6 6 6 6 6 5 5 5 5 6 7
12 12 11 10 11 12 10 9 9 9 9 8 7 8 9 8 7 7 7 6 6 7 7 8 8 7 5 5 7 7 6 6 8 8 7 6 8 9 9 10 11 12 13 12 8 4 2 2 1 2 1 2 3 4 3 3 4 4 3 2 2 4 4 5 6 7 6 4 3 1 1 1 1 2 3 4 5 5 5 5 4 4 4 5 5
14 13 11 8 9 10 9 9 9 9 8 7 7 8 8 8 7 7 7 6 5 6 6 7 8 7 5 6 7 8 8 7 8 8 5 5 7 7 7 8 10 12 14 12 8 5 3 2 2 2 1 3 4 5 4 4 5 4 4 4 2 2 2 2 4 4 5 4 3 2 1 1 2 1 2 2 3 3 3 4 4 3 3 3 4
16 15 12 9 8 8 8 8 9 9 8 8 8 9 8 8 8 8 8 6 6 6 6 6 7 7 7 8 8 8 8 6 7 8 7 6 5 5 6 8 10 14 14 12 9 6 4 3 3 4 3 4 5 5 5 5 5 5 4 4 3 2 0 1 2 2 3 4 3 2 0 1 2 3 3 3 3 3 3 3 3 3 3 2 3
12 13 13 12 11 10 10 10 9 9 9 8 8 9 8 8 8 8 7 6 7 7 6 6 7 7 7 6 7 8 7 7 7 8 8 7 6 7 9 10 12 14 14 12 9 6 5 5 3 4 5 3 3 4 5 6 5 5 4 3 4 3 1 1 1 1 2 4 4 3 2 1 2 3 4 4 4 4 4 4 4 3 3 3 3
9 10 11 15 15 14 13 12 10 9 9 9 8 8 8 8 7 7 7 7 7 7 7 6 6 7 7 5 8 9 7 8 8 8 7 7 7 8 9 10 11 11 11 11 10 7 7 6 3 4 4 2 3 4 7 7 5 4 3 2 3 2 2 3 2 1 2 3 5 4 3 3 2 3 4 5 6 6 6 6 6 6 5 5 4
12 10 10 12 15 15 15 14 11 9 9 9 9 9 8 8 7 7 6 7 7 7 6 6 6 7 6 6 7 8 8 9 8 7 5 5 6 8 8 9 8 8 8 9 9 8 7 5 4 4 2 2 1 3 7 8 5 4 3 2 1 2 2 2 2 1 2 3 5 5 4 3 3 3 4 6 7 7 7 7 7 7 7 7 7
16 14 12 11 12 13 14 15 14 11 10 9 9 9 9 8 8 7 7 7 6 5 5 5 6 6 4 5 8 8 9 10 8 6 5 4 6 7 8 8 7 8 8 7 8 8 7 5 3 2 2 3 2 2 6 6 5 3 3 4 2 2 2 3 2 1 1 3 6 5 4 3 3 3 4 5 7 8 8 8 8 8 8 9 9
16 16 15 13 12 12 12 13 14 13 13 12 10 9 9 9 8 8 7 7 6 5 5 6 6 7 6 7 8 7 9 10 8 6 5 5 7 8 8 8 8 8 7 7 8 8 7 5 2 2 3 3 3 1 3 4 4 3 5 6 4 3 3 4 4 3 2 4 7 6 5 3 3 3 4 5 6 7 8 9 10 10 10 10 10
15 15 16 15 14 13 13 12 11 11 12 13 11 9 9 9 8 7 7 7 8 8 7 7 6 7 8 10 9 8 10 10 8 5 3 5 8 8 6 7 8 7 6 7 8 7 7 6 4 4 6 5 3 1 2 3 3 3 6 8 6 5 6 5 5 4 4 5 8 8 6 4 3 3 3 4 5 6 7 8 9 9 10 11 12
12 13 14 14 14 14 14 13 12 10 9 10 10 10 10 10 10 9 8 7 10 11 9 8 8 8 9 10 11 11 11 8 7 6 6 8 8 7 6 6 8 7 7 7 7 7 7 7 5 6 7 7 6 5 3 4 5 5 7 7 6 6 8 7 7 6 5 7 9 8 7 5 3 3 3 4 4 5 6 6 6 7 8 9 11
13 13 14 14 14 14 15 15 14 12 11 10 12 13 13 13 13 12 11 9 9 10 10 10 9 7 7 7 7 8 8 8 8 8 8 9 7 6 5 4 7 8 9 7 8 9 8 8 8 8 8 8 8 8 8 7 8 9 9 8 6 8 10 11 9 6 5 8 9 8 6 5 4 3 3 4 5 5 6 6 6 6 6 7 8
15 15 15 15 16 16 14 15 16 15 14 14 14 15 14 14 15 14 13 12 10 10 11 12 10 8 7 7 6 7 9 11 12 11 11 11 10 8 7 6 7 11 11 9 9 9 8 9 9 9 9 9 9 10 11 11 11 10 10 9 8 9 11 10 8 6 6 8 9 8 6 5 4 4 4 5 6 7 7 7 7 7 7 7 7
15 15 15 16 16 16 14 14 17 18 18 17 16 15 15 15 16 16 15 14 13 12 12 12 12 11 10 10 11 11 12 13 14 13 12 13 13 12 11 10 10 11 11 10 10 10 9 9 9 9 9 9 9 10 11 12 12 11 11 10 9 10 11 10 8 8 8 9 10 9 7 6 5 4 3 4 6 7 7 8 9 9 9 9 9
16 15 16 17 16 16 16 16 18 19 19 18 16 16 17 16 17 16 14 13 14 14 14 13 13 13 14 15 15 15 15 15 13 12 11 10 10 10 10 10 10 10 10 10 10 11 11 10 9 10 9 9 9 9 11 12 13 13 13 12 11 11 12 11 10 9 10 11 11 9 7 6 5 5 3 3 4 4 5 6 8 9 10 10 11
18 18 18 18 17 17 17 17 19 19 18 18 18 18 17 16 16 15 13 13 15 15 15 15 14 14 15 16 16 16 14 11 10 10 9 7 6 7 9 9 10 11 12 11 11 11 11 10 10 9 9 9 8 8 10 11 12 13 14 14 12 11 11 12 11 11 12 13 12 10 8 7 6 6 4 3 4 4 2 3 5 7 8 9 10
18 19 19 19 19 19 18 18 19 19 18 18 18 17 14 13 13 13 13 15 16 15 16 16 15 15 15 13 13 13 12 10 9 9 9 6 5 8 10 10 10 11 12 13 12 12 12 11 11 10 9 9 9 9 9 10 11 12 13 14 14 11 9 11 13 13 13 13 12 11 11 10 8 7 5 4 5 5 2 2 4 5 6 7 8
16 16 17 17 18 19 19 19 19 20 19 18 17 15 13 12 13 13 13 13 14 15 16 16 16 16 16 14 12 11 11 12 11 9 8 6 6 10 11 10 11 11 11 12 13 13 13 13 12 12 11 11 10 10 10 10 11 11 11 12 14 13 10 11 13 14 13 14 13 12 12 11 9 8 6 5 6 6 4 2 5 6 6 6 7
19 17 16 16 17 19 20 19 18 19 19 18 15 12 11 12 14 15 14 13 13 13 13 14 16 16 16 15 12 11 12 13 12 9 8 7 7 11 12 12 12 11 11 13 14 13 13 14 13 13 13 12 11 10 10 10 9 9 10 10 12 13 12 12 13 14 14 14 15 13 12 10 9 9 9 9 9 8 7 6 7 8 8 8 8
22 20 18 17 17 18 18 17 17 17 18 17 14 12 12 13 14 15 15 15 14 13 13 14 15 15 14 14 12 13 14 14 12 10 9 7 7 9 12 12 12 13 12 13 14 14 14 15 15 14 15 14 12 10 10 10 9 9 9 9 11 12 13 13 14 14 14 14 14 13 12 12 12 12 13 12 11 11 11 10 9 9 10 10 10
22 21 20 19 19 18 17 15 15 15 16 16 14 12 12 14 15 15 15 16 16 15 14 14 14 14 14 13 13 14 14 13 11 9 8 8 7 7 9 11 12 13 13 13 14 14 15 16 16 16 16 16 14 12 10 10 10 11 11 12 13 14 14 15 15 16 16 15 14 13 13 14 13 14 16 16 14 13 13 12 10 10 11 11 11
22 21 21 20 20 19 16 15 15 15 15 15 14 12 12 12 14 15 15 16 15 15 14 14 13 13 13 12 11 12 13 12 10 9 9 9 8 7 8 10 11 12 12 13 14 15 15 16 17 17 17 17 16 14 12 11 11 12 14 15 16 17 18 18 17 16 16 16 16 14 13 13 13 15 18 19 18 17 15 13 12 13 12 12 11
20 20 21 21 21 20 18 16 16 16 16 16 15 14 13 11 12 14 15 15 15 14 14 12 11 10 10 10 10 10 11 11 11 10 11 11 10 9 10 10 12 13 13 13 13 15 16 17 18 19 17 17 18 16 14 14 13 14 16 18 19 20 20 20 18 16 15 16 17 15 14 14 15 16 18 19 19 19 17 16 15 15 14 13 11
19 19 20 20 20 20 18 18 18 18 17 16 15 14 13 12 12 12 13 14 14 14 13 12 11 10 9 9 9 10 11 12 13 14 15 14 13 12 12 12 13 14 14 14 14 14 15 17 19 20 19 19 19 19 17 17 16 16 17 18 20 21 21 21 20 18 17 17 18 18 18 17 17 17 18 19 19 20 20 18 17 16 15 14 11
20 20 19 19 19 19 18 19 20 19 18 16 15 14 14 14 14 13 12 14 14 14 13 12 12 10 9 10 11 11 13 15 16 16 16 15 15 15 15 14 14 14 14 14 14 15 16 18 20 21 21 20 20 20 20 19 17 18 19 18 19 21 22 23 22 21 19 19 19 19 19 19 18 18 19 19 20 21 21 20 17 16 15 14 11
22 21 20 19 19 18 18 20 21 20 18 17 15 13 12 13 14 13 13 13 13 14 13 13 12 11 11 11 12 13 15 17 17 17 16 16 16 16 16 16 16 16 15 15 17 18 19 20 21 22 22 22 21 22 23 20 18 19 20 19 20 21 22 24 25 24 22 21 20 20 20 20 20 20 20 20 20 20 21 20 18 16 14 12 10
23 21 20 20 19 17 18 20 20 20 19 18 16 13 12 12 12 12 13 13 14 14 14 14 13 12 12 12 13 14 14 14 14 15 15 16 16 16 18 19 19 18 19 20 20 20 21 21 21 22 22 22 22 23 24 22 20 20 20 20 22 23 24 25 27 26 24 24 23 21 21 21 21 20 20 21 21 21 21 20 18 16 14 12 10
20 19 20 21 20 19 18 19 19 18 17 16 15 13 12 12 11 10 10 11 11 12 12 12 12 12 12 12 13 13 13 12 13 14 15 16 17 18 19 21 22 22 23 23 22 21 22 22 21 20 20 21 21 22 23 23 21 21 21 20 22 24 25 27 27 27 27 26 25 23 23 23 22 21 20 21 22 22 21 21 20 18 16 13 10
Wind_Direction
141 133 126 124 126 137 129 118 109 98 108 112 110 120 122 115 109 118 128 124 111 83 75 76 83 77 73 66 53 50 48 52 46 27 23 31 32 32 38 39 37 39 42 45 45 42 37 34 33 32 31 29 26 24 23 24 23 20 21 25 29 32 34 34 30 39 69 104 127 166 173 168 179 184 200 207 207 211 208 203 201 198 197 198 200
140 137 136 136 144 167 150 128 123 119 130 122 124 136 128 125 121 108 119 139 119 70 68 63 74 74 62 50 42 45 44 42 34 22 19 27 33 28 28 29 27 32 35 37 39 37 34 31 29 29 30 30 27 24 23 24 23 21 20 23 27 31 33 32 36 44 67 96 121 150 170 180 188 189 198 203 197 197 198 198 198 195 193 195 195
139 140 143 149 160 175 164 147 158 164 149 132 133 135 127 134 139 122 117 128 113 80 72 55 72 79 51 38 43 50 38 29 24 16 11 18 32 32 29 25 18 21 25 27 29 28 28 27 26 26 27 29 28 25 23 23 24 21 20 23 25 31 34 32 37 39 48 69 100 130 156 177 192 197 191 191 191 190 191 191 194 195 192 189 190
142 143 153 162 159 161 160 157 177 177 152 136 129 116 116 134 142 133 125 119 107 109 99 50 73 99 59 34 41 52 29 21 25 9 3 9 15 24 30 25 17 18 20 19 20 18 19 23 22 23 25 27 28 26 24 24 24 22 19 21 25 30 35 35 38 34 36 56 81 116 136 152 163 173 171 178 186 185 187 186 188 190 185 185 191
148 156 164 161 153 155 162 175 196 190 158 127 113 105 108 125 136 132 125 123 120 130 206 61 68 103 88 46 45 67 27 23 25 357 355 1 360 9 15 18 23 23 21 20 17 11 12 18 17 18 22 25 29 28 25 24 24 23 19 18 23 29 36 42 43 35 35 49 62 85 101 113 128 144 155 169 174 172 176 177 180 181 176 182 190
158 167 160 149 155 165 169 190 192 183 161 127 112 108 103 114 121 125 125 135 129 96 107 96 72 92 114 85 84 105 39 356 354 339 344 350 349 359 1 5 17 17 19 20 16 15 12 12 11 12 20 23 29 30 25 24 24 23 19 17 21 27 37 46 48 43 39 48 59 73 89 101 115 132 146 156 158 157 162 164 170 174 170 174 183
165 167 157 157 179 177 178 190 171 163 158 136 122 111 106 115 109 117 132 137 127 101 117 120 86 98 130 149 158 160 262 286 300 313 333 348 354 5 1 355 1 1 9 14 15 22 17 13 9 6 17 22 25 29 25 22 24 23 19 17 20 27 38 45 44 44 43 50 61 71 87 98 108 124 136 144 146 147 154 159 165 170 167 168 174
173 168 164 175 181 173 179 183 167 167 162 144 134 114 111 124 112 134 148 137 133 123 139 146 130 131 136 177 208 265 281 284 269 296 338 356 7 13 1 350 349 350 358 4 9 21 20 18 17 4 12 23 20 23 24 21 22 22 18 16 19 26 38 44 43 42 41 47 62 73 88 97 102 117 127 135 140 142 150 157 162 166 164 162 163
175 168 169 175 172 170 178 181 178 173 157 140 128 109 111 110 119 195 187 170 166 137 148 158 159 169 186 209 237 300 306 310 290 300 337 345 4 14 358 347 348 347 352 359 359 9 17 19 22 10 10 23 18 16 19 18 20 19 18 16 18 25 34 44 46 43 38 42 61 77 90 103 106 115 123 128 134 136 145 153 155 158 159 156 154
170 165 169 174 172 176 176 180 186 171 156 149 129 114 167 161 168 220 192 174 179 165 167 182 194 193 207 216 240 328 325 314 289 305 334 337 3 8 353 352 355 346 347 357 353 355 10 18 25 22 16 22 17 12 15 15 17 16 14 16 17 22 31 43 49 45 40 38 55 78 92 107 112 117 122 125 129 132 139 147 149 149 152 152 152
167 163 165 171 173 178 176 180 184 169 163 161 145 159 199 191 161 171 175 172 160 157 182 223 204 204 231 230 227 320 345 348 311 316 336 340 355 348 337 351 357 348 340 348 352 348 3 18 23 23 25 26 14 6 11 11 14 13 10 13 17 20 27 40 51 49 42 38 48 74 94 110 118 121 126 129 131 134 137 143 146 148 151 155 156
168 166 166 169 171 178 180 179 180 173 170 167 165 183 197 197 181 142 145 150 136 140 174 226 201 225 272 253 233 271 339 340 325 324 329 328 336 329 326 344 351 350 340 346 6 359 359 10 14 14 23 29 17 3 6 7 13 14 7 9 15 19 24 33 47 56 48 41 46 66 92 109 122 127 132 138 140 141 143 147 150 153 157 159 162
173 173 173 174 172 179 184 179 177 175 175 177 181 194 200 196 188 150 137 135 129 152 225 249 241 270 288 262 256 263 298 306 304 312 315 306 306 310 314 329 348 352 342 351 25 8 354 354 359 6 16 24 20 7 3 7 14 13 6 5 12 16 22 28 39 55 58 46 47 59 86 107 123 134 138 144 151 153 155 158 159 161 163 163 165
179 180 179 180 175 176 182 178 177 179 182 189 190 192 196 190 180 165 165 152 144 208 238 260 270 280 286 278 282 274 269 277 285 299 308 305 304 307 297 297 333 353 340 351 16 359 346 342 343 356 10 16 17 12 8 12 16 11 3 4 10 13 18 26 33 46 58 56 53 59 78 104 117 131 142 147 153 159 163 166 166 167 166 163 163
183 184 183 185 180 178 182 178 176 184 189 197 201 191 180 177 174 178 202 213 216 197 211 257 280 290 289 280 282 278 271 278 286 298 310 311 314 326 307 288 319 346 335 336 354 344 338 341 339 347 3 11 16 17 16 15 16 9 359 359 9 13 15 23 31 38 45 54 65 67 73 98 113 121 135 145 150 155 160 165 167 168 167 164 161
184 186 185 186 185 182 182 179 175 182 188 187 186 182 175 173 177 201 205 202 203 195 198 287 275 277 286 277 274 272 277 289 294 303 314 301 290 318 334 318 323 335 328 324 332 331 332 343 342 342 353 5 16 16 20 19 13 7 357 357 10 17 16 19 30 37 38 43 59 79 81 91 115 126 131 139 147 152 155 158 161 165 168 165 160
187 189 187 184 186 187 183 181 178 177 178 174 164 166 175 177 179 198 202 202 209 203 198 206 236 264 271 279 279 266 271 296 302 306 315 305 296 314 331 329 328 327 322 325 321 318 329 339 338 344 355 4 14 20 22 16 8 7 2 2 11 20 22 20 28 39 41 40 47 72 94 95 110 131 138 140 146 152 156 158 157 160 166 165 162
189 190 188 185 186 190 187 181 180 178 174 169 164 168 180 184 191 203 203 211 217 201 200 203 214 266 270 279 282 271 273 274 285 302 310 313 315 322 324 323 335 330 321 332 322 306 315 316 316 341 357 1 10 26 29 15 5 7 8 10 12 19 30 28 28 41 47 44 44 58 88 112 117 123 135 143 147 150 154 158 158 160 163 165 165
191 191 191 192 189 186 186 184 178 175 176 177 175 178 183 185 197 203 201 211 216 201 205 211 218 262 285 264 260 288 302 266 273 306 310 316 326 333 334 336 344 340 330 333 325 302 292 287 289 316 331 352 13 43 42 21 6 3 6 13 14 15 26 39 38 43 51 52 49 53 67 90 111 117 125 141 149 151 151 151 155 161 166 170 170
191 191 189 192 191 185 185 188 180 172 178 185 183 181 184 190 201 203 201 204 204 200 201 196 189 236 279 237 252 286 302 283 287 305 308 315 325 338 346 342 341 341 334 322 313 303 300 305 305 293 305 329 6 44 18 8 3 355 4 10 11 14 23 43 52 50 53 56 56 56 60 69 84 102 111 128 144 151 156 156 154 159 169 178 181
190 188 188 187 189 188 185 188 186 182 183 182 183 188 188 195 204 203 205 203 198 195 188 181 174 153 236 245 266 287 291 293 298 297 298 308 314 332 337 322 323 331 325 316 307 301 305 308 295 274 284 290 275 337 336 339 343 319 360 6 8 18 31 50 67 64 57 54 57 59 63 66 72 82 90 108 128 139 154 163 165 166 168 175 185
191 187 187 186 187 188 186 186 189 192 192 186 183 186 188 198 205 194 191 196 201 199 180 173 181 181 232 265 273 290 295 297 302 303 300 296 295 317 322 305 312 326 323 321 317 305 300 293 276 257 249 251 272 353 65 209 223 203 23 4 7 26 44 59 70 74 63 52 53 56 61 68 72 76 80 90 104 120 140 155 167 174 177 177 181
196 194 189 188 188 187 188 188 192 193 192 195 190 185 193 204 199 181 182 191 199 204 191 181 186 190 214 273 275 291 304 301 302 308 307 298 291 306 312 301 313 320 318 321 321 312 300 284 264 253 237 228 257 332 165 178 169 161 131 4 11 34 52 65 69 73 72 48 45 49 55 65 72 78 80 82 88 100 118 135 153 167 178 182 184
195 199 193 195 194 189 194 193 192 192 189 199 201 198 206 208 199 183 184 194 199 204 204 201 207 208 210 256 273 282 297 303 306 311 314 307 298 306 304 300 314 317 314 316 317 319 306 254 227 302 261 217 214 211 204 179 154 144 135 55 29 44 59 73 74 75 80 75 60 51 57 64 72 81 86 86 86 90 98 112 128 144 163 176 184
193 199 193 200 202 193 200 202 193 193 196 203 202 206 211 207 206 198 191 203 210 207 207 212 221 220 219 253 270 267 268 287 298 306 316 310 308 317 304 291 304 314 317 319 318 327 329 216 262 352 345 224 202 182 183 159 137 138 153 158 87 60 66 74 68 66 73 78 85 97 126 120 97 98 101 100 100 96 95 100 108 120 136 154 169
193 202 198 203 209 196 199 209 204 201 204 206 201 205 211 205 209 215 213 219 225 214 208 212 215 211 226 258 268 262 257 270 286 291 298 304 311 318 300 283 291 303 313 320 314 301 308 290 269 300 313 240 206 179 176 157 139 141 154 170 157 93 61 50 43 42 50 52 63 91 135 173 185 188 174 154 138 128 119 111 107 112 120 135 152
196 203 202 205 220 216 214 217 213 209 207 204 203 207 211 210 214 222 225 224 224 221 214 213 209 200 218 249 266 267 264 271 283 280 273 283 290 276 274 278 282 293 305 315 311 292 293 315 274 259 262 239 208 187 189 171 149 142 148 177 184 146 106 338 7 14 20 14 9 20 53 187 199 206 208 213 206 192 180 165 151 141 137 142 155
197 202 199 200 217 229 234 234 226 218 214 210 209 212 214 215 218 221 226 226 221 220 218 213 205 199 214 253 273 271 275 283 283 276 266 269 269 260 269 278 282 294 305 311 316 301 286 304 294 276 273 244 218 209 204 184 153 141 146 177 190 169 198 271 300 325 341 348 347 343 333 287 229 215 211 216 220 220 218 213 207 198 186 178 175
206 215 205 198 205 219 231 238 236 222 217 218 217 220 219 216 218 220 222 224 220 223 225 214 206 208 212 238 265 272 285 291 283 279 272 265 264 264 270 274 278 292 298 300 309 306 287 286 294 306 299 241 225 217 205 196 171 155 163 173 180 195 260 270 271 279 305 334 341 339 328 308 274 237 217 214 216 218 221 223 224 224 221 216 209
210 225 227 209 206 215 224 233 238 226 216 220 222 225 227 225 225 224 223 226 229 231 230 220 219 223 214 218 249 273 286 287 286 287 281 262 257 262 268 268 272 286 290 291 299 298 287 285 299 311 278 206 212 206 203 200 171 164 205 199 201 297 278 254 268 289 299 338 345 342 335 319 295 266 237 221 216 216 217 219 222 226 228 229 228
208 208 222 233 228 224 225 233 241 240 231 229 229 227 228 230 230 231 232 233 233 235 242 245 231 221 221 231 242 255 268 274 280 280 268 259 259 260 269 275 280 289 287 277 281 285 285 288 298 294 231 217 279 228 203 197 159 160 228 233 253 290 257 236 262 291 315 348 349 347 340 323 301 278 255 239 229 225 224 223 224 226 227 229 231
214 205 207 223 237 240 240 239 240 242 240 240 243 242 239 238 232 232 236 234 232 238 252 260 237 213 224 248 250 255 263 267 274 272 249 248 259 257 265 274 277 291 287 261 260 269 273 276 271 250 241 250 299 308 183 184 163 174 239 246 246 261 266 261 268 286 325 346 348 352 352 331 302 278 259 245 237 234 235 236 237 237 236 234 232
218 216 210 212 223 236 249 254 248 241 238 240 248 256 258 256 250 247 246 237 235 246 256 261 256 237 230 235 240 251 262 268 280 289 263 262 268 262 264 261 254 273 280 255 260 267 269 283 294 277 270 272 293 315 168 183 180 202 243 245 245 266 281 276 274 293 322 331 335 343 349 339 306 277 253 235 231 229 230 235 240 243 245 243 240
223 226 224 224 226 228 236 249 254 249 243 242 249 259 264 265 265 264 263 247 233 243 260 268 272 270 254 247 244 245 253 266 284 292 279 278 278 269 263 243 228 247 260 245 250 259 264 280 285 272 270 272 281 283 259 227 221 237 252 251 254 277 287 283 279 291 311 316 321 331 340 340 318 288 261 230 222 220 222 227 232 240 243 242 240
232 233 231 234 237 234 229 233 240 246 248 246 250 255 256 259 261 261 266 265 243 240 256 268 275 278 270 268 260 245 246 256 264 265 256 257 266 268 265 222 203 241 264 255 254 262 268 273 265 257 255 253 259 261 251 238 227 228 241 252 266 286 294 289 279 282 301 308 315 322 326 329 314 289 263 236 224 218 220 223 227 234 237 237 237
230 234 232 231 238 243 240 233 231 234 237 237 241 244 243 248 254 251 253 262 260 252 255 260 265 272 274 274 263 244 244 249 250 249 245 247 253 256 260 248 235 255 269 269 264 266 275 280 269 261 258 254 252 246 240 239 235 228 231 238 246 265 284 285 270 270 292 302 311 317 313 312 305 288 265 246 235 227 226 226 227 230 231 233 235
230 232 233 233 238 243 241 232 229 233 236 235 238 242 240 242 247 245 242 249 258 261 261 259 257 257 260 262 259 253 253 255 254 252 252 252 250 249 255 261 260 265 272 273 269 265 271 280 276 267 263 261 256 248 241 239 238 236 236 233 233 248 267 274 266 268 282 293 304 307 299 296 296 293 281 257 245 240 239 239 237 236 234 234 235
231 229 233 235 237 238 236 233 234 241 245 242 243 250 248 243 246 247 241 241 250 253 255 257 254 252 252 253 256 256 255 258 263 263 257 250 249 256 264 268 267 270 273 273 273 271 271 273 269 264 262 261 258 252 246 244 243 240 236 236 241 249 258 262 265 268 273 283 295 298 298 297 294 299 300 258 243 244 249 251 248 245 243 241 241
229 230 235 237 236 237 239 238 240 246 251 251 253 255 252 245 245 248 245 244 249 250 252 257 259 258 254 252 254 256 256 263 277 283 282 274 268 275 278 277 276 277 277 275 273 273 273 269 264 261 259 259 257 253 251 253 252 244 236 237 240 241 249 258 264 271 276 281 283 287 295 298 293 301 307 264 247 251 271 284 269 258 254 251 251
228 229 235 240 241 244 248 249 249 250 252 255 257 252 245 243 244 248 250 250 252 253 255 260 263 260 256 256 262 268 272 280 281 277 281 286 285 284 282 281 280 280 281 281 278 274 270 267 267 268 267 264 259 255 251 252 255 250 242 241 239 232 237 250 255 261 270 273 272 277 291 296 292 296 297 272 263 256 258 327 316 291 276 264 262
236 236 240 244 245 247 251 254 256 256 254 256 258 248 237 240 245 248 251 252 256 259 259 261 262 260 262 269 274 271 269 276 279 270 266 272 281 284 281 279 279 277 276 278 280 278 270 268 271 275 275 271 265 260 256 252 255 252 246 244 242 237 234 242 253 259 260 264 265 265 272 278 281 284 281 275 274 261 249 311 333 321 306 292 283
247 250 248 246 246 248 250 251 257 260 257 256 258 250 238 238 242 244 247 251 257 261 263 262 260 262 267 271 272 269 269 277 284 277 266 265 274 278 275 273 276 274 271 273 276 277 274 271 273 276 275 273 269 267 265 262 258 254 251 246 240 237 236 243 257 264 262 266 268 261 259 263 264 263 264 266 272 271 265 284 313 318 311 306 301
252 255 254 251 251 252 250 251 259 261 252 250 256 257 248 243 245 246 248 251 254 256 258 260 260 263 268 270 275 282 283 284 283 274 262 255 261 272 274 274 274 273 272 273 273 275 276 276 276 275 275 276 274 268 268 268 263 259 261 259 250 245 245 248 255 258 257 262 262 258 265 275 267 255 255 261 267 268 267 276 295 303 299 297 298
251 253 254 251 249 250 251 255 259 254 246 245 251 259 256 249 249 250 250 252 254 256 258 260 262 263 264 267 274 279 278 276 271 263 259 255 251 263 274 277 276 274 271 271 272 273 274 276 277 276 277 280 279 273 270 268 260 254 255 260 259 256 255 257 259 259 258 258 255 255 265 272 267 259 262 269 269 263 262 269 282 289 292 295 295
253 253 253 250 248 249 252 254 253 247 244 242 242 253 261 256 250 247 248 252 253 256 260 263 265 266 265 268 274 273 266 257 251 252 260 259 250 251 265 275 278 277 275 274 274 274 273 273 273 274 276 279 278 275 272 269 264 257 252 252 254 255 258 261 264 265 263 256 251 255 259 260 261 264 267 269 269 261 255 258 269 276 286 296 298
254 255 255 254 252 251 250 249 246 242 240 241 244 254 263 259 248 245 246 249 251 253 258 261 263 266 270 276 279 269 254 244 245 257 264 262 257 257 263 270 275 277 276 274 273 273 273 273 273 274 274 273 273 272 269 267 265 261 255 252 252 255 259 261 261 260 255 248 248 254 256 252 255 261 264 267 269 265 256 254 261 270 279 290 295
252 253 255 256 255 252 247 243 241 238 237 242 249 257 259 256 251 249 247 244 243 245 249 252 255 260 267 277 281 270 255 248 252 260 264 265 265 264 264 266 270 271 271 270 270 269 271 273 276 277 277 274 272 270 266 262 259 257 256 256 256 258 260 261 260 255 250 248 249 253 256 255 255 259 263 266 267 264 258 253 254 262 272 282 284
252 251 252 254 254 250 242 238 237 237 237 243 249 253 258 261 257 250 245 241 237 238 242 248 252 256 265 274 276 271 263 258 258 261 266 271 274 273 272 270 270 268 265 264 265 268 271 274 277 277 277 276 274 271 267 263 261 260 259 258 258 259 260 261 261 258 255 252 250 251 254 256 256 258 261 263 262 262 259 253 249 255 267 275 276
256 254 253 254 254 248 240 236 235 235 237 241 243 244 253 261 255 243 241 243 242 242 246 252 255 259 265 270 273 273 271 267 265 265 268 274 278 280 278 275 271 267 263 261 265 270 274 276 277 276 275 275 274 273 271 268 265 264 263 261 258 258 258 259 259 258 256 253 252 251 251 252 254 258 260 261 261 260 256 250 246 250 259 265 268
257 256 255 250 240 229 230 233 230 230 234 236 237 236 240 250 251 242 238 242 247 250 252 255 258 260 265 270 273 274 271 269 270 270 272 276 279 280 278 276 273 270 269 270 272 273 273 274 274 274 275 277 276 273 271 270 268 267 267 265 261 259 257 258 258 258 256 254 252 249 249 250 252 253 255 257 257 256 252 245 240 243 251 257 260
257 258 252 239 223 213 220 229 228 227 227 227 231 234 235 241 246 242 237 240 249 257 258 258 257 257 260 265 267 265 264 270 276 278 278 279 279 279 278 277 275 274 275 277 278 277 276 276 276 275 276 278 277 274 274 275 274 271 269 267 264 262 260 259 259 258 256 255 253 250 248 249 248 249 250 252 253 253 249 243 237 236 240 246 251
Height
1578 1579 1580 1581 1582 1584 1584 1585 1585 1586 1587 1588 1588 1588 1588 1588 1588 1588 1588 1589 1589 1589 1589 1589 1589 1589 1588 1588 1587 1587 1587 1586 1586 1586 1586 1585 1584 1584 1584 1583 1582 1581 1580 1579 1579 1578 1577 1576 1575 1573 1572 1571 1570 1568 1566 1564 1563 1561 1560 1559 1558 1558 1557 1557 1556 1556 1556 1555 1555 1555 1554 1555 1555 1554 1554 1555 1555 1555 1556 1559 1561 1562 1564 1566 1568
1578 1580 1581 1582 1583 1584 1585 1585 1586 1587 1588 1589 1589 1589 1588 1588 1588 1589 1589 1589 1590 1590 1589 1589 1589 1589 1589 1589 1588 1588 1587 1587 1587 1587 1587 1586 1585 1585 1584 1583 1583 1582 1581 1580 1580 1579 1578 1577 1576 1574 1573 1572 1570 1569 1567 1565 1563 1562 1560 1559 1559 1558 1558 1557 1557 1557 1556 1556 1555 1555 1554 1554 1554 1554 1554 1554 1554 1554 1555 1558 1559 1561 1563 1565 1567
1579 1580 1582 1583 1584 1585 1585 1585 1586 1588 1589 1589 1589 1589 1589 1589 1589 1589 1589 1590 1590 1590 1590 1590 1590 1590 1590 1589 1589 1588 1588 1588 1588 1587 1587 1587 1586 1586 1585 1584 1584 1583 1582 1581 1580 1580 1579 1578 1576 1575 1574 1573 1571 1570 1568 1566 1565 1563 1561 1560 1560 1559 1558 1558 1557 1557 1557 1556 1555 1555 1554 1554 1554 1554 1553 1553 1554 1554 1555 1557 1558 1560 1562 1564 1566
1579 1580 1582 1584 1585 1585 1586 1586 1587 1588 1589 1589 1590 1590 1590 1590 1590 1589 1589 1590 1591 1591 1591 1591 1591 1590 1590 1590 1590 1589 1589 1589 1588 1588 1588 1587 1586 1586 1585 1585 1584 1584 1583 1582 1581 1580 1580 1578 1577 1576 1575 1574 1572 1571 1569 1568 1566 1564 1563 1561 1560 1560 1559 1558 1558 1557 1557 1556 1555 1555 1554 1554 1553 1553 1553 1553 1554 1554 1555 1556 1557 1559 1562 1563 1565
1579 1581 1583 1584 1585 1586 1586 1586 1587 1588 1589 1589 1590 1590 1591 1591 1591 1590 1590 1590 1591 1591 1591 1592 1592 1591 1591 1591 1591 1590 1589 1589 1589 1588 1588 1587 1586 1585 1585 1585 1585 1584 1583 1582 1582 1581 1580 1579 1578 1577 1576 1575 1573 1572 1570 1569 1567 1565 1564 1562 1561 1561 1560 1559 1558 1558 1557 1556 1556 1555 1554 1554 1554 1553 1553 1554 1554 1554 1555 1556 1557 1559 1561 1563 1565
1580 1581 1584 1585 1585 1586 1586 1587 1587 1588 1589 1589 1590 1591 1591 1592 1592 1591 1591 1591 1591 1591 1591 1592 1592 1592 1592 1591 1590 1590 1590 1589 1589 1589 1588 1588 1587 1586 1585 1585 1585 1585 1584 1583 1583 1581 1581 1580 1579 1578 1577 1576 1574 1573 1571 1570 1568 1567 1565 1564 1562 1561 1561 1560 1559 1558 1557 1557 1556 1555 1555 1554 1554 1554 1554 1554 1555 1555 1556 1557 1558 1559 1561 1563 1565
1580 1582 1584 1584 1585 1586 1586 1587 1588 1588 1589 1589 1590 1591 1592 1592 1592 1592 1592 1591 1591 1591 1591 1591 1592 1592 1592 1591 1590 1591 1591 1590 1590 1589 1588 1588 1587 1586 1586 1585 1585 1585 1584 1584 1583 1582 1581 1580 1579 1578 1577 1576 1575 1574 1572 1571 1569 1568 1567 1565 1563 1562 1561 1560 1560 1559 1558 1557 1557 1556 1556 1555 1555 1555 1555 1555 1556 1556 1557 1558 1558 1560 1561 1563 1565
1580 1582 1584 1584 1585 1586 1587 1587 1588 1588 1589 1589 1590 1591 1592 1592 1592 1593 1592 1592 1592 1591 1591 1591 1591 1591 1591 1590 1590 1590 1590 1590 1589 1588 1588 1588 1587 1586 1586 1586 1585 1585 1584 1584 1583 1582 1582 1581 1580 1579 1578 1577 1576 1575 1573 1572 1571 1569 1568 1566 1564 1563 1562 1561 1560 1559 1559 1558 1557 1557 1557 1557 1556 1556 1556 1557 1557 1558 1558 1559 1559 1561 1562 1563 1566
1581 1582 1583 1584 1585 1586 1587 1588 1588 1588 1589 1589 1590 1591 1592 1592 1592 1592 1592 1592 1592 1592 1591 1591 1591 1590 1590 1590 1589 1589 1589 1588 1588 1588 1587 1587 1587 1587 1586 1586 1586 1585 1584 1583 1583 1583 1582 1581 1580 1579 1579 1578 1577 1575 1574 1573 1572 1570 1569 1567 1565 1564 1563 1562 1561 1560 1559 1559 1558 1558 1558 1558 1558 1558 1558 1558 1558 1559 1559 1560 1561 1562 1564 1565 1567
1581 1582 1583 1584 1585 1586 1587 1587 1588 1588 1589 1589 1590 1590 1591 1592 1592 1592 1592 1592 1592 1592 1591 1591 1590 1590 1590 1590 1589 1589 1589 1588 1588 1587 1587 1587 1587 1587 1587 1587 1586 1585 1585 1584 1583 1583 1582 1582 1581 1580 1579 1578 1577 1576 1575 1574 1573 1571 1570 1568 1567 1565 1564 1563 1562 1561 1561 1560 1559 1559 1559 1559 1559 1559 1560 1560 1560 1560 1561 1561 1562 1564 1565 1567 1568
1581 1582 1583 1584 1585 1586 1586 1587 1588 1588 1588 1589 1589 1590 1591 1591 1592 1592 1592 1592 1592 1592 1591 1591 1590 1590 1590 1590 1589 1589 1589 1588 1588 1588 1587 1587 1587 1587 1587 1587 1586 1586 1585 1584 1583 1583 1582 1582 1581 1581 1580 1578 1578 1577 1576 1575 1574 1573 1571 1570 1568 1566 1565 1564 1563 1563 1562 1561 1561 1560 1561 1561 1561 1561 1561 1562 1562 1562 1562 1563 1564 1565 1566 1568 1569
1581 1582 1583 1584 1585 1586 1586 1587 1587 1588 1588 1589 1589 1590 1590 1591 1591 1591 1591 1591 1591 1591 1591 1590 1590 1590 1590 1589 1589 1589 1589 1588 1588 1587 1587 1587 1587 1587 1587 1586 1586 1585 1585 1584 1584 1583 1582 1582 1581 1581 1580 1579 1579 1578 1577 1576 1575 1573 1572 1571 1569 1568 1566 1565 1564 1564 1563 1562 1562 1562 1561 1562 1562 1562 1562 1563 1563 1564 1564 1565 1566 1566 1567 1568 1569
1582 1583 1584 1584 1585 1586 1586 1587 1587 1588 1588 1589 1589 1589 1590 1591 1591 1591 1591 1591 1591 1591 1590 1590 1590 1590 1590 1589 1589 1589 1589 1588 1588 1588 1587 1588 1587 1587 1586 1586 1585 1585 1585 1584 1584 1583 1583 1582 1581 1581 1580 1579 1579 1578 1577 1576 1575 1574 1573 1572 1570 1569 1568 1566 1565 1564 1564 1563 1563 1563 1563 1563 1563 1563 1563 1564 1565 1565 1566 1566 1567 1567 1568 1569 1569
1581 1583 1584 1584 1585 1585 1586 1586 1587 1588 1588 1589 1589 1589 1590 1591 1591 1591 1591 1590 1591 1591 1590 1590 1590 1590 1589 1589 1589 1589 1588 1588 1588 1588 1587 1587 1586 1586 1585 1585 1585 1584 1584 1584 1583 1583 1583 1582 1581 1581 1580 1580 1579 1578 1577 1577 1576 1575 1574 1573 1572 1570 1569 1568 1566 1565 1565 1564 1564 1564 1564 1564 1564 1564 1564 1565 1565 1566 1566 1567 1567 1568 1568 1569 1570
1581 1582 1583 1584 1585 1585 1586 1586 1587 1587 1588 1589 1589 1589 1589 1590 1590 1590 1590 1590 1590 1590 1590 1590 1590 1590 1589 1588 1588 1588 1588 1587 1587 1587 1587 1586 1585 1585 1584 1584 1584 1584 1584 1584 1583 1583 1583 1582 1582 1581 1580 1580 1579 1578 1578 1577 1576 1575 1575 1574 1573 1572 1570 1569 1567 1566 1566 1565 1565 1565 1565 1565 1565 1565 1565 1566 1566 1566 1567 1567 1568 1568 1569 1570 1570
1581 1582 1583 1584 1584 1585 1586 1586 1587 1587 1588 1588 1588 1589 1589 1589 1589 1589 1590 1590 1590 1590 1590 1590 1590 1589 1589 1588 1587 1587 1586 1586 1585 1586 1586 1585 1585 1584 1584 1584 1584 1584 1584 1583 1583 1582 1582 1582 1582 1581 1580 1579 1579 1578 1577 1577 1577 1576 1575 1575 1574 1573 1571 1570 1569 1568 1567 1566 1566 1566 1566 1566 1566 1566 1566 1567 1567 1567 1568 1568 1569 1569 1570 1570 1571
1581 1582 1582 1583 1584 1585 1585 1586 1586 1587 1587 1587 1588 1588 1588 1588 1589 1589 1589 1589 1589 1590 1589 1589 1589 1589 1588 1588 1587 1586 1586 1585 1585 1585 1585 1585 1584 1584 1584 1584 1583 1583 1583 1583 1582 1582 1582 1582 1581 1581 1580 1579 1579 1578 1577 1577 1577 1576 1576 1575 1574 1573 1572 1572 1570 1569 1568 1567 1567 1566 1566 1567 1567 1567 1567 1567 1568 1568 1569 1569 1569 1570 1571 1572 1572
1580 1581 1582 1583 1584 1584 1585 1585 1586 1586 1586 1587 1587 1587 1588 1588 1588 1588 1588 1589 1589 1589 1589 1589 1589 1588 1588 1588 1587 1587 1586 1586 1585 1584 1584 1584 1584 1583 1583 1583 1583 1583 1583 1582 1581 1581 1581 1581 1581 1580 1580 1579 1578 1578 1577 1577 1577 1577 1576 1576 1575 1574 1573 1573 1572 1571 1569 1569 1568 1567 1567 1567 1568 1568 1568 1568 1568 1569 1569 1570 1570 1570 1571 1572 1573
1579 1580 1581 1582 1583 1583 1584 1585 1585 1585 1586 1586 1586 1587 1587 1587 1588 1588 1588 1588 1588 1588 1588 1588 1588 1588 1588 1587 1587 1587 1586 1586 1585 1584 1584 1584 1583 1582 1582 1582 1582 1582 1582 1581 1581 1581 1581 1580 1580 1580 1579 1579 1578 1578 1578 1577 1577 1577 1577 1576 1575 1574 1574 1573 1573 1572 1571 1570 1569 1569 1568 1568 1568 1569 1569 1569 1569 1569 1570 1570 1571 1571 1571 1572 1573
1579 1580 1581 1581 1582 1582 1583 1584 1584 1585 1585 1585 1586 1586 1586 1587 1587 1587 1587 1588 1588 1588 1588 1588 1588 1588 1588 1587 1587 1587 1586 1586 1585 1584 1584 1583 1583 1582 1581 1581 1582 1581 1581 1581 1581 1581 1580 1580 1579 1579 1579 1578 1577 1577 1577 1577 1577 1577 1577 1576 1575 1575 1574 1573 1573 1573 1572 1571 1571 1570 1569 1569 1569 1569 1569 1569 1570 1570 1570 1571 1571 1572 1572 1573 1573
1578 1579 1580 1581 1581 1582 1582 1583 1583 1584 1584 1584 1585 1585 1586 1586 1586 1586 1587 1587 1587 1587 1587 1587 1587 1588 1587 1587 1587 1587 1586 1586 1585 1585 1584 1583 1582 1582 1581 1581 1581 1581 1581 1580 1580 1580 1580 1579 1579 1578 1578 1577 1577 1577 1577 1577 1577 1577 1577 1576 1576 1575 1574 1574 1573 1573 1573 1572 1572 1571 1571 1570 1569 1569 1569 1570 1570 1570 1571 1571 1572 1572 1573 1573 1574
1578 1578 1579 1580 1580 1581 1581 1582 1582 1583 1583 1583 1584 1584 1584 1585 1585 1585 1585 1586 1586 1586 1587 1587 1587 1587 1587 1587 1587 1586 1586 1585 1585 1585 1584 1583 1582 1581 1581 1581 1580 1580 1581 1580 1580 1579 1579 1579 1578 1577 1577 1576 1576 1576 1576 1576 1576 1577 1577 1576 1576 1575 1575 1574 1573 1573 1573 1573 1573 1572 1572 1571 1571 1570 1570 1570 1570 1570 1571 1572 1572 1572 1573 1573 1574
1577 1578 1579 1579 1579 1580 1580 1581 1581 1581 1582 1582 1583 1583 1583 1584 1584 1584 1584 1585 1585 1586 1586 1586 1586 1587 1587 1586 1586 1586 1585 1585 1585 1585 1584 1583 1582 1581 1581 1580 1580 1580 1580 1580 1579 1579 1578 1578 1577 1576 1576 1576 1576 1576 1576 1576 1576 1576 1576 1576 1576 1576 1575 1574 1573 1573 1573 1573 1573 1573 1573 1572 1572 1571 1571 1571 1571 1571 1571 1572 1572 1573 1573 1573 1574
1576 1577 1578 1578 1578 1579 1579 1579 1580 1580 1581 1581 1582 1582 1583 1583 1583 1583 1584 1584 1584 1585 1585 1586 1586 1586 1586 1586 1585 1585 1585 1585 1585 1584 1584 1583 1582 1581 1581 1580 1579 1579 1580 1579 1579 1578 1578 1577 1576 1576 1575 1575 1575 1576 1576 1576 1576 1576 1576 1576 1576 1576 1575 1575 1574 1573 1573 1573 1574 1573 1573 1573 1573 1572 1572 1572 1572 1572 1572 1572 1573 1573 1573 1574 1574
1575 1576 1577 1577 1578 1578 1578 1579 1579 1579 1580 1580 1581 1581 1582 1582 1582 1583 1583 1583 1584 1584 1584 1585 1585 1585 1585 1585 1585 1584 1584 1584 1584 1584 1584 1583 1582 1581 1581 1580 1579 1579 1579 1578 1578 1578 1578 1577 1576 1575 1575 1575 1575 1575 1575 1575 1576 1576 1576 1576 1576 1576 1576 1575 1574 1574 1574 1574 1574 1573 1573 1573 1573 1573 1573 1573 1573 1573 1573 1573 1573 1573 1573 1574 1574
1574 1574 1575 1576 1577 1577 1578 1578 1578 1579 1579 1580 1580 1580 1581 1581 1581 1582 1582 1583 1583 1583 1583 1584 1584 1585 1585 1584 1584 1584 1584 1583 1584 1584 1584 1583 1582 1581 1580 1580 1579 1579 1578 1578 1578 1578 1577 1576 1576 1575 1575 1574 1575 1575 1575 1575 1575 1575 1575 1576 1576 1576 1576 1576 1575 1574 1574 1574 1574 1573 1573 1573 1573 1573 1573 1573 1573 1573 1573 1573 1573 1573 1573 1574 1574
1573 1573 1574 1575 1576 1576 1577 1578 1578 1578 1579 1579 1579 1580 1580 1580 1581 1581 1581 1582 1582 1582 1583 1583 1583 1584 1583 1583 1583 1583 1583 1583 1583 1583 1583 1583 1582 1581 1580 1580 1580 1579 1579 1578 1577 1577 1577 1576 1576 1575 1575 1574 1574 1575 1574 1574 1575 1575 1575 1575 1575 1576 1576 1576 1575 1575 1574 1574 1574 1573 1573 1573 1573 1573 1573 1573 1573 1573 1574 1574 1574 1574 1574 1574 1574
1572 1573 1573 1574 1575 1575 1576 1577 1577 1577 1578 1578 1579 1579 1579 1580 1580 1580 1581 1581 1581 1582 1582 1582 1583 1583 1583 1583 1583 1582 1582 1582 1582 1583 1583 1582 1581 1580 1579 1580 1580 1579 1579 1578 1577 1577 1577 1576 1576 1575 1575 1575 1575 1574 1574 1574 1574 1574 1574 1575 1575 1575 1575 1575 1575 1575 1574 1574 1574 1573 1573 1573 1572 1572 1572 1572 1573 1573 1573 1573 1574 1574 1574 1574 1574
1571 1572 1573 1573 1574 1574 1575 1576 1576 1576 1577 1577 1578 1578 1579 1579 1579 1580 1580 1580 1580 1581 1581 1582 1582 1582 1582 1582 1582 1581 1582 1582 1582 1583 1583 1582 1581 1580 1580 1580 1579 1579 1578 1578 1577 1577 1577 1577 1576 1575 1574 1574 1574 1574 1574 1574 1574 1574 1574 1575 1575 1575 1575 1575 1575 1575 1574 1574 1573 1573 1572 1572 1572 1572 1572 1572 1572 1572 1572 1573 1573 1573 1573 1573 1574
1571 1571 1572 1572 1573 1573 1574 1574 1574 1575 1576 1576 1577 1577 1578 1578 1578 1579 1579 1579 1579 1580 1580 1580 1581 1581 1581 1582 1581 1581 1582 1582 1582 1583 1582 1582 1581 1580 1580 1579 1579 1578 1578 1578 1578 1578 1578 1577 1576 1575 1574 1574 1574 1573 1574 1573 1573 1573 1574 1574 1575 1575 1575 1575 1575 1575 1574 1574 1573 1572 1572 1571 1571 1571 1571 1571 1571 1571 1571 1571 1572 1572 1572 1572 1573
1570 1571 1571 1572 1572 1573 1573 1573 1573 1574 1574 1575 1576 1576 1577 1577 1577 1578 1578 1578 1578 1579 1579 1579 1580 1580 1581 1581 1581 1581 1582 1582 1582 1582 1582 1582 1581 1580 1579 1579 1579 1579 1579 1579 1578 1578 1578 1578 1576 1575 1575 1574 1574 1574 1574 1573 1573 1573 1574 1574 1575 1575 1575 1575 1575 1574 1574 1574 1573 1572 1571 1571 1570 1570 1570 1570 1570 1570 1570 1570 1570 1570 1571 1571 1571
1569 1570 1571 1571 1571 1572 1572 1572 1573 1573 1573 1574 1574 1575 1575 1576 1576 1576 1577 1577 1577 1577 1578 1578 1578 1579 1579 1580 1580 1580 1581 1581 1581 1581 1581 1581 1581 1580 1579 1580 1579 1579 1578 1578 1578 1578 1578 1578 1576 1575 1574 1574 1573 1573 1573 1573 1573 1573 1574 1575 1575 1575 1575 1575 1575 1574 1574 1573 1573 1572 1571 1570 1570 1569 1569 1569 1569 1569 1569 1569 1569 1569 1569 1570 1570
1568 1569 1569 1570 1570 1571 1571 1571 1572 1572 1572 1573 1573 1574 1574 1574 1575 1575 1576 1576 1576 1576 1576 1577 1577 1578 1578 1578 1579 1579 1579 1579 1579 1580 1580 1580 1580 1579 1579 1579 1579 1579 1579 1579 1578 1576 1577 1577 1575 1574 1574 1573 1572 1572 1572 1572 1573 1573 1574 1575 1575 1575 1575 1575 1574 1574 1573 1573 1572 1571 1571 1570 1570 1569 1569 1568 1568 1568 1568 1568 1568 1568 1568 1568 1569
1566 1567 1568 1568 1569 1570 1570 1570 1571 1571 1572 1572 1572 1573 1573 1573 1574 1574 1575 1575 1575 1575 1575 1576 1576 1576 1576 1577 1577 1577 1578 1578 1578 1578 1578 1578 1578 1578 1578 1579 1579 1579 1579 1578 1577 1576 1576 1576 1575 1574 1573 1572 1572 1571 1571 1572 1572 1573 1574 1574 1574 1574 1574 1574 1574 1573 1572 1572 1571 1571 1570 1569 1569 1569 1568 1568 1568 1567 1567 1567 1567 1567 1567 1567 1567
1565 1565 1566 1567 1567 1568 1569 1569 1570 1570 1571 1572 1572 1572 1572 1573 1573 1573 1573 1573 1574 1574 1574 1574 1575 1575 1575 1575 1575 1576 1576 1576 1576 1576 1576 1576 1576 1576 1576 1577 1577 1577 1577 1576 1576 1576 1576 1576 1575 1574 1574 1573 1573 1572 1572 1572 1572 1573 1573 1573 1573 1573 1573 1573 1573 1572 1572 1571 1571 1570 1570 1569 1568 1568 1568 1567 1567 1567 1567 1566 1566 1566 1566 1566 1566
1563 1564 1565 1565 1566 1566 1567 1568 1569 1569 1570 1571 1571 1571 1571 1572 1571 1571 1572 1572 1572 1572 1572 1573 1573 1573 1573 1573 1574 1574 1574 1574 1574 1575 1575 1575 1575 1575 1575 1575 1576 1577 1577 1576 1576 1576 1575 1575 1575 1574 1574 1574 1574 1573 1573 1572 1572 1572 1572 1572 1572 1572 1571 1571 1572 1571 1571 1571 1570 1570 1569 1569 1568 1568 1567 1567 1566 1566 1566 1566 1565 1565 1565 1565 1565
1562 1562 1563 1564 1564 1565 1565 1566 1567 1567 1567 1568 1568 1568 1570 1570 1570 1569 1570 1570 1571 1571 1571 1571 1571 1572 1572 1571 1571 1571 1571 1572 1572 1572 1573 1573 1573 1574 1574 1575 1575 1576 1575 1575 1575 1574 1574 1574 1574 1574 1573 1573 1573 1573 1572 1572 1572 1571 1571 1571 1571 1570 1570 1570 1570 1570 1570 1570 1570 1569 1569 1568 1568 1567 1567 1566 1566 1565 1565 1565 1565 1564 1564 1564 1564
1560 1560 1561 1562 1562 1563 1564 1564 1564 1564 1565 1566 1565 1565 1567 1568 1568 1568 1568 1569 1569 1569 1569 1570 1570 1570 1570 1570 1570 1569 1569 1568 1568 1569 1570 1570 1571 1572 1573 1573 1573 1573 1573 1574 1573 1573 1573 1572 1572 1572 1572 1571 1571 1571 1571 1571 1571 1570 1570 1570 1570 1569 1568 1568 1569 1569 1569 1569 1569 1568 1568 1567 1567 1567 1566 1566 1565 1565 1565 1564 1564 1563 1563 1563 1562
1558 1559 1559 1559 1560 1560 1561 1562 1562 1563 1564 1564 1564 1564 1564 1565 1565 1566 1567 1568 1568 1568 1568 1568 1568 1568 1568 1568 1566 1565 1565 1566 1566 1567 1568 1569 1570 1571 1571 1571 1571 1571 1571 1572 1572 1571 1571 1571 1571 1570 1570 1569 1569 1569 1569 1569 1569 1569 1569 1569 1569 1568 1567 1567 1568 1568 1568 1568 1568 1567 1567 1566 1566 1566 1565 1565 1565 1564 1564 1563 1563 1563 1562 1562 1561
1556 1557 1557 1558 1558 1559 1559 1560 1560 1561 1562 1562 1562 1562 1563 1563 1564 1565 1566 1566 1566 1566 1567 1567 1567 1566 1565 1564 1564 1565 1565 1565 1565 1565 1566 1567 1567 1568 1568 1568 1568 1569 1569 1570 1570 1570 1570 1569 1569 1569 1568 1568 1567 1567 1567 1567 1567 1567 1567 1567 1567 1567 1567 1567 1567 1567 1566 1566 1566 1566 1566 1566 1565 1565 1564 1564 1564 1563 1563 1563 1562 1562 1561 1561 1560
1555 1555 1555 1556 1556 1557 1557 1557 1558 1558 1559 1560 1560 1561 1561 1561 1562 1562 1563 1564 1564 1564 1565 1565 1565 1564 1563 1562 1563 1564 1564 1563 1563 1564 1564 1564 1564 1564 1565 1565 1565 1566 1567 1568 1568 1568 1568 1568 1567 1567 1566 1566 1566 1565 1565 1565 1566 1566 1566 1565 1565 1565 1566 1566 1564 1564 1564 1565 1565 1565 1565 1565 1565 1564 1563 1563 1563 1562 1562 1561 1561 1561 1560 1560 1559
1553 1553 1553 1554 1554 1554 1555 1555 1556 1556 1556 1558 1559 1559 1559 1560 1560 1560 1561 1561 1562 1562 1562 1563 1563 1562 1562 1562 1562 1562 1562 1562 1562 1563 1564 1563 1563 1563 1563 1562 1562 1563 1564 1565 1565 1566 1566 1566 1566 1565 1565 1564 1564 1564 1563 1563 1564 1564 1564 1564 1563 1563 1564 1564 1563 1562 1563 1563 1563 1563 1563 1563 1563 1562 1561 1561 1561 1561 1560 1560 1559 1559 1559 1559 1558
1550 1550 1551 1551 1550 1551 1552 1553 1554 1554 1554 1555 1556 1557 1557 1558 1559 1559 1558 1559 1559 1559 1560 1560 1561 1561 1561 1561 1561 1560 1560 1560 1561 1562 1563 1562 1562 1562 1562 1561 1561 1561 1561 1562 1563 1563 1564 1564 1564 1563 1563 1562 1562 1562 1562 1562 1562 1562 1561 1562 1561 1561 1561 1561 1561 1561 1561 1561 1561 1561 1561 1561 1561 1561 1559 1559 1559 1559 1559 1558 1558 1558 1558 1557 1557
1547 1547 1547 1547 1547 1548 1549 1550 1551 1551 1551 1553 1553 1554 1555 1556 1557 1557 1556 1556 1556 1557 1557 1557 1558 1559 1559 1559 1559 1559 1558 1558 1559 1559 1560 1560 1559 1559 1559 1559 1559 1559 1559 1560 1560 1561 1561 1561 1561 1561 1561 1560 1560 1560 1560 1560 1560 1559 1559 1559 1559 1559 1559 1558 1558 1558 1559 1559 1558 1558 1558 1558 1558 1559 1557 1557 1557 1556 1556 1556 1556 1556 1556 1556 1555
1545 1545 1545 1544 1544 1545 1546 1547 1548 1548 1549 1550 1551 1552 1553 1553 1554 1554 1555 1555 1554 1555 1555 1555 1556 1556 1557 1558 1558 1557 1557 1557 1557 1557 1557 1557 1556 1556 1556 1557 1558 1558 1558 1558 1558 1559 1559 1559 1559 1559 1559 1558 1558 1558 1558 1558 1557 1557 1556 1556 1556 1556 1556 1556 1556 1556 1556 1556 1556 1555 1556 1556 1556 1556 1555 1554 1555 1554 1554 1554 1554 1554 1554 1554 1554
1542 1542 1542 1542 1542 1543 1544 1544 1545 1546 1547 1548 1549 1549 1550 1551 1551 1552 1552 1552 1552 1553 1553 1553 1554 1554 1554 1555 1555 1556 1556 1556 1556 1555 1555 1555 1554 1554 1554 1555 1556 1556 1556 1556 1557 1557 1557 1557 1557 1556 1556 1556 1555 1555 1555 1555 1554 1554 1553 1553 1553 1553 1553 1553 1553 1553 1553 1553 1553 1553 1553 1554 1553 1553 1552 1552 1552 1551 1552 1552 1553 1553 1553 1552 1552
1538 1538 1539 1539 1539 1540 1541 1541 1542 1543 1544 1545 1546 1547 1547 1548 1549 1549 1549 1550 1550 1550 1551 1551 1552 1552 1552 1552 1553 1554 1554 1554 1553 1553 1552 1553 1552 1552 1552 1552 1553 1554 1554 1554 1554 1554 1555 1555 1554 1554 1554 1553 1553 1552 1552 1551 1551 1551 1550 1550 1550 1550 1550 1549 1549 1550 1550 1550 1550 1550 1550 1550 1550 1550 1550 1550 1550 1549 1549 1550 1550 1551 1551 1550 1550
1535 1535 1536 1536 1536 1536 1537 1538 1539 1540 1541 1542 1543 1544 1545 1545 1546 1546 1547 1547 1548 1548 1548 1549 1549 1550 1550 1550 1550 1551 1551 1550 1550 1550 1550 1551 1550 1550 1550 1550 1551 1551 1551 1551 1551 1551 1551 1551 1551 1551 1550 1550 1550 1549 1548 1548 1549 1548 1547 1547 1547 1546 1546 1546 1546 1547 1547 1546 1547 1547 1547 1547 1548 1548 1548 1547 1547 1547 1547 1547 1548 1548 1549 1548 1548
1533 1533 1533 1533 1533 1533 1534 1535 1536 1537 1539 1540 1541 1541 1542 1542 1543 1544 1545 1545 1546 1546 1546 1546 1547 1547 1548 1548 1547 1548 1547 1547 1548 1548 1548 1548 1548 1548 1547 1547 1548 1548 1549 1549 1549 1548 1548 1548 1548 1548 1547 1547 1546 1545 1544 1545 1547 1546 1544 1544 1544 1544 1543 1543 1543 1544 1544 1543 1543 1543 1544 1544 1544 1545 1545 1544 1545 1545 1545 1545 1545 1546 1546 1546 1546
1529 1530 1530 1529 1529 1529 1531 1532 1533 1534 1536 1537 1538 1538 1539 1540 1541 1542 1543 1544 1544 1545 1545 1544 1544 1545 1545 1545 1545 1545 1545 1545 1545 1546 1546 1546 1546 1545 1545 1545 1545 1545 1545 1546 1546 1546 1546 1545 1545 1545 1544 1544 1543 1542 1540 1541 1543 1542 1541 1541 1541 1541 1540 1540 1540 1540 1540 1540 1540 1540 1540 1540 1540 1541 1541 1541 1541 1542 1542 1542 1542 1543 1544 1544 1544
1525 1526 1526 1524 1524 1526 1528 1529 1530 1532 1533 1534 1535 1536 1536 1538 1539 1540 1541 1542 1542 1543 1543 1543 1543 1543 1543 1543 1543 1543 1543 1543 1543 1543 1543 1544 1543 1543 1543 1543 1543 1543 1542 1543 1543 1542 1542 1542 1542 1542 1541 1541 1540 1539 1538 1538 1539 1538 1538 1538 1538 1537 1537 1537 1537 1537 1536 1536 1537 1537 1536 1536 1536 1537 1537 1537 1537 1538 1539 1539 1540 1540 1541 1541 1542